Location: USNO
(38.9242°N, 77.0663°W)
Time: 08:21:00
(UTC-05:00)

Daily predictions for brighter satellites

Satellite Brightness Start Highest point End
(mag) Time Altitude Azimuth Time Altitude Azimuth Time Altitude Azimuth
CENTAUR R/B 4.3 17:38:46 10° W 17:43:52 25° NW 17:49:28 10° NNE
Cosmos 1980 4.5 17:41:42 10° SW 17:47:15 55° WNW 17:52:50 10° NNE
AQUARIUS 4.4 17:44:26 10° S 17:48:55 78° WSW 17:53:27 10° NNW
Lacrosse 4 Rocket 2.8 17:48:25 10° N 17:51:14 18° NE 17:54:02 10° E
Cosmos 1626 2.9 17:50:18 10° SSE 17:53:37 31° E 17:56:58 10° NNE
USA 229 DEB 4.2 17:50:33 10° S 17:56:54 42° ESE 18:03:20 10° NE
USA 229 4.2 17:50:40 10° S 17:57:00 42° ESE 18:03:24 10° NE
Cosmos 1151 Rocket 3.7 17:55:50 10° NNW 18:00:03 58° W 18:04:16 10° S
Resurs 01 Rocket 3.5 17:59:25 10° E 18:00:50 11° ENE 18:02:15 10° NE
Cosmos 2219 Rocket 4.1 17:57:51 10° WSW 18:02:36 27° WNW 18:07:22 10° N
Cosmos 2058 3.1 18:00:11 10° SSW 18:04:16 73° W 18:08:23 10° N
Meteor 1-11 4.4 17:59:33 10° SSW 18:05:15 81° W 18:11:03 10° N
Cosmos 1184 Rocket 3.6 18:02:32 10° SSE 18:05:30 30° E 18:08:29 10° NNE
Cosmos 1726 3.7 18:04:52 10° NNW 18:08:26 41° W 18:11:58 10° SSW
MONITOR-E 4.2 18:05:18 10° SSE 18:08:27 90° SSW 18:11:38 10° NNW
Cosmos 2279 Rocket 4.0 18:02:32 10° N 18:08:48 86° E 18:15:03 10° S
Iridium 4 Rocket 4.2 18:06:28 10° SE 18:09:49 21° E 18:13:03 10° NNE
Cosmos 1603 4.4 18:07:28 10° SSE 18:12:23 32° ESE 18:17:19 10° NE
Cosmos 2333 Rocket 4.0 18:08:38 10° WSW 18:13:28 29° WNW 18:18:20 10° N
Cosmos 1461 3.7 18:10:22 10° SW 18:14:25 49° NW 18:18:23 10° NNE
Cosmos 304 Rocket 4.2 18:09:57 10° SSW 18:14:44 65° WNW 18:19:31 10° NNE
Aureole 1 Rocket 4.1 18:10:04 10° S 18:15:15 51° E 18:22:03 10° NNE
FREGAT/IRIS 4.0 18:13:17 10° ESE 18:15:35 20° ENE 18:17:54 10° NNE
Lacrosse 5 rocket 3.2 18:13:20 10° WNW 18:16:44 31° SW 18:20:19 10° S
Cosmos 2278 Rocket 3.8 18:14:42 10° NW 18:19:54 38° WSW 18:25:07 10° S
Cosmos 1242 Rocket 3.7 18:17:30 10° NNE 18:20:08 20° ENE 18:22:45 10° ESE
Tiangong 1 2.1 18:18:36 10° SW 18:21:17 31° SSE 18:22:42 20° ESE
Cosmos 1805 Rocket 3.7 18:17:04 10° S 18:21:30 83° W 18:26:00 10° N
Cosmos 1455 2.3 18:18:03 10° N 18:21:46 49° E 18:25:28 10° SSE
Cosmos 1356 Rocket 3.2 18:19:32 10° S 18:23:29 80° E 18:27:30 10° NNE
SKYMED 2 3.7 18:21:53 10° N 18:26:14 76° WNW 18:30:33 10° SSW
Nadezhda 4 Rocket 4.0 18:20:20 10° S 18:26:31 67° E 18:32:47 10° NNE
Cosmos 1538 Rocket 4.2 18:25:07 10° SSW 18:30:24 76° WNW 18:35:47 10° NNE
Cosmos 2242 Rocket 3.9 18:26:22 10° N 18:30:36 43° E 18:34:50 10° SSE
Sich 1 3.0 18:27:53 10° S 18:32:18 82° E 18:36:46 10° N
Cosmos 1703 4.2 18:31:55 10° SSW 18:35:43 50° W 18:39:31 10° N
Coronas F rocket 0.7 18:34:47 10° S 18:37:09 77° E 18:37:55 38° NNE
Cosmos 923 Rocket 4.0 18:33:09 10° S 18:38:13 56° ESE 18:42:58 12° NNE
Cosmos 2237 Rocket 4.4 18:38:12 10° WSW 18:42:31 22° NW 18:46:52 10° N
SJ-6B 2.9 18:39:24 10° SSE 18:43:24 59° ENE 18:47:30 10° N
Cosmos 1633 Rocket 3.1 18:39:44 10° S 18:44:08 84° W 18:48:33 10° N
Cosmos 1680 Rocket 3.7 18:39:16 10° S 18:44:14 48° ESE 18:47:47 19° NE
Cosmos 2369 Rocket 3.1 18:42:16 10° N 18:46:53 25° NE 18:47:05 25° ENE
NOSS 3-1 (C) 4.0 18:42:59 10° S 18:48:03 34° ESE 18:50:00 28° ENE
Cosmos 1092 Rocket 3.9 18:43:37 10° S 18:49:55 73° E 18:56:15 10° N
SL-16 R/B 3.4 18:46:04 10° SW 18:51:22 41° WNW 18:56:43 10° N
Lacrosse 5 4.0 18:54:09 10° N 18:55:59 12° NNE 18:56:21 12° NNE
USA 215 3.4 18:56:43 27° E 19:00:08 52° NE 19:06:28 10° NW
ALOS 2.3 18:56:40 10° SSE 19:01:11 53° ENE 19:05:44 10° N
METEOR-M 4.4 19:03:28 10° S 19:08:47 68° WSW 19:14:08 10° NNW
Cosmos 1862 Rocket 3.4 19:05:14 10° N 19:09:36 65° E 19:13:53 10° SSE
FENGYUN 3A 3.5 19:05:35 10° SSE 19:10:53 66° ENE 19:16:14 10° N
BREEZE-M DEB (TANK) 4.3 19:06:52 10° SSW 19:11:08 44° ESE 19:15:10 31° ENE
Cosmos 292 Rocket 3.8 19:06:44 10° SSW 19:11:28 77° WNW 19:14:24 23° NNE
Cosmos 2195 Rocket 4.3 19:06:04 10° S 19:12:07 71° E 19:18:15 10° NNE
Genesis I 3.8 19:09:44 10° SSW 19:12:42 43° SSE 19:12:42 43° SSE
Cosmos 2112 Rocket 3.9 19:15:51 10° SSW 19:21:03 90° W 19:23:17 36° NNE
Meteor 2-20 Rocket 4.5 19:15:29 10° SSE 19:21:21 52° E 19:22:00 49° ENE
Cosmos 1943 3.1 19:22:34 10° S 19:28:10 67° ESE 19:28:36 64° E
Lacrosse 4 Rocket 2.7 19:26:18 10° NW 19:30:04 38° WSW 19:33:02 15° S
ATLAS 5 CENTAUR R/B 3.8 19:26:30 10° NNW 19:29:30 23° NNE 19:29:30 23° NNE
Cosmos 1933 Rocket 4.3 19:28:25 10° SSW 19:32:45 53° W 19:35:24 22° N
Resurs 01 Rocket 1.8 19:32:17 10° S 19:36:43 68° WSW 19:41:09 10° NNW
Cosmos 1417 Rocket 4.3 19:33:46 10° N 19:39:57 76° E 19:46:04 10° SSE
H-2A ROCKET BODY 3.5 19:26:52 10° W 19:43:32 39° SSW 19:45:25 32° SSE
Cosmos 1943 Rocket 4.1 19:43:16 10° N 19:44:32 16° N 19:44:32 16° N
Spot 2 Rocket 4.1 19:46:04 10° S 19:50:59 54° W 19:55:56 10° NNW
Cosmos 1655 Rocket 4.1 19:44:39 10° S 19:51:01 77° W 19:57:24 10° N
CZ-4C R/B 4.1 19:52:52 10° NNW 19:56:23 25° N 19:56:23 25° N
NOSS 3-1 (A) 3.6 19:55:27 10° SSW 20:00:05 61° SSW 20:00:05 61° SSW
Cosmos 2369 Rocket 3.7 20:25:45 10° NW 20:28:57 31° NW 20:28:57 31° NW
USA 215 4.2 20:44:05 42° WSW 20:44:05 42° WSW 20:49:24 10° WNW
